星链-32211 (STARLINK-32211)

导读 | 豆包AI

STARLINK-32211是美国SpaceX公司于2024年7月27日发射的星链(Starlink)低轨互联网卫星,部署在近地轨道,属于星链星座的组成部分。星链星座旨在为全球尤其是基础设施匮乏地区提供高速、低延迟的宽带互联网服务,支持民用通信、航空与海洋联网等多元场景,该卫星的发射进一步扩充了星链网络的全球覆盖能力。

基本信息
目录编号:
60270
目录名称:
STARLINK-32211
国际标识:
2024-131R
轨道中心:
EARTH
卫星名称:
星链-32211 (STARLINK-32211)
卫星全名:
星链-32211 (STARLINK-32211)
卫星状态:
在轨 (已飞行643 天)
发射日期:
2024-07-27 UTC
国别 :
美国 (US)
星等 :
--
轨道信息
数据来源 国际轨道数据
星历时间: 2026-04-30T17:56:32+0800
18小时前
查看轨道信息
半长轴: 6853.374km
偏心率: 0.000116
轨道倾角: 53.160°
近地点辐角 82.993°
升交点赤经 172.487°
平近点角 277.120°
近地点: 474.442km
远地点: 476.032km
周期: 94.106分钟
每日圈数: 15.301929
详细信息
卫星平台:
Starlink v2.0 mini
运营商:
太空探索技术公司
运营商所在国:
美国
制造商(研发单位):
太空探索技术公司
制造商所在国:
美国
使用方式:
暂无
卫星简介
星链(Starlink)计划是由太空探索技术公司(SpaceX)提出的一个巨型低轨卫星互联网星座项目,计划在2019年至2024年间在太空搭建由约1.2万颗卫星组成的“星链”网络,其中1584颗将部署在地球上空550千米处的近地轨道,并从2020年开始工作。该卫星仍在工作。
2D轨道图
3D轨道图
轨道高度分析图
轨道倾角分析图
轨道综合分析图
查看轨道综合分析图